Radiation Dose measured at exhaust stack monitor of Fukushima Daiichi Nuclear Power Station
Date,Time,Unit 5 6 shared exhaust cylinders,Wind Direction,Wind Velocity(m/s)
2021/04/09,00:00,3.9,west-northwest,7.7
2021/04/09,00:10,4.0,west-northwest,8.3
2021/04/09,00:20,4.0,west-northwest,8.5
2021/04/09,00:30,3.9,west-northwest,7.2
2021/04/09,00:40,3.9,northwest,6.0
2021/04/09,00:50,4.0,northwest,5.4
2021/04/09,01:00,3.9,northwest,5.0
2021/04/09,01:10,3.9,northwest,4.9
2021/04/09,01:20,3.9,northwest,5.0
2021/04/09,01:30,4.0,northwest,4.6
2021/04/09,01:40,4.0,north-northwest,4.7
2021/04/09,01:50,3.9,north-northwest,4.3
2021/04/09,02:00,3.8,north-northwest,4.2
2021/04/09,02:10,3.9,northwest,3.6
2021/04/09,02:20,3.7,northwest,5.5
2021/04/09,02:30,4.1,northwest,6.9
2021/04/09,02:40,4.0,north-northwest,7.1
2021/04/09,02:50,3.8,north-northwest,7.0
2021/04/09,03:00,3.7,northwest,6.8
2021/04/09,03:10,3.8,northwest,6.1
2021/04/09,03:20,3.8,northwest,7.0
2021/04/09,03:30,3.8,west-northwest,7.3
2021/04/09,03:40,4.1,west-northwest,8.2
2021/04/09,03:50,4.0,west-northwest,8.9
2021/04/09,04:00,3.9,west-northwest,9.7
2021/04/09,04:10,4.0,west-northwest,8.3
2021/04/09,04:20,3.9,west-northwest,5.2
2021/04/09,04:30,3.9,west-northwest,5.7
2021/04/09,04:40,4.0,northwest,7.1
2021/04/09,04:50,3.9,northwest,6.0
2021/04/09,05:00,4.1,northwest,5.6
2021/04/09,05:10,4.0,west-northwest,6.6
2021/04/09,05:20,4.0,northwest,6.2
2021/04/09,05:30,3.9,northwest,5.7
2021/04/09,05:40,4.1,west-northwest,5.4
2021/04/09,05:50,3.9,west,5.3
2021/04/09,06:00,3.9,west,5.8
2021/04/09,06:10,4.1,west-northwest,5.3
2021/04/09,06:20,3.9,northwest,2.5
2021/04/09,06:30,4.0,north-northeast,0.6
2021/04/09,06:40,4.0,northwest,1.2
2021/04/09,06:50,4.0,north-northwest,2.3
2021/04/09,07:00,4.0,northwest,1.9
2021/04/09,07:10,3.9,north,1.7
2021/04/09,07:20,3.9,north-northeast,4.2
2021/04/09,07:30,4.0,northeast,3.7
2021/04/09,07:40,3.9,east,3.4
2021/04/09,07:50,3.8,east-southeast,2.2
2021/04/09,08:00,3.9,southeast,3.5
2021/04/09,08:10,4.0,west-southwest,1.2
2021/04/09,08:20,3.9,west-northwest,4.7
2021/04/09,08:30,3.9,west-northwest,7.2
2021/04/09,08:40,3.8,west,6.7
2021/04/09,08:50,4.0,west-northwest,7.4
2021/04/09,09:00,4.0,northwest,2.8
2021/04/09,09:10,4.0,west-northwest,2.0
2021/04/09,09:20,4.0,west-northwest,7.2
2021/04/09,09:30,3.9,west,5.5
2021/04/09,09:40,3.9,west,7.0
2021/04/09,09:50,3.9,west-northwest,9.3
2021/04/09,10:00,4.1,west-northwest,8.4
2021/04/09,10:10,4.1,west-northwest,7.4
2021/04/09,10:20,3.9,north,4.1
2021/04/09,10:30,3.8,north-northeast,5.5
2021/04/09,10:40,4.0,north-northeast,3.8
2021/04/09,10:50,3.9,north,2.6
2021/04/09,11:00,4.0,east,1.9
2021/04/09,11:10,4.0,west,3.6
2021/04/09,11:20,3.9,west-southwest,6.4
2021/04/09,11:30,3.8,west-northwest,8.2
2021/04/09,11:40,3.9,west,8.2
2021/04/09,11:50,4.2,north,3.2
2021/04/09,12:00,4.0,west,2.3
2021/04/09,12:10,4.0,west-northwest,8.3
2021/04/09,12:20,3.9,west,8.9
2021/04/09,12:30,4.0,west,10.7
2021/04/09,12:40,4.0,west,8.7
2021/04/09,12:50,4.0,west,9.2
2021/04/09,13:00,3.9,west,10.2
2021/04/09,13:10,3.9,northwest,8.0
2021/04/09,13:20,4.0,north-northwest,6.5
2021/04/09,13:30,3.9,west-northwest,7.5
2021/04/09,13:40,4.0,west,11.0
2021/04/09,13:50,4.1,west,8.7
2021/04/09,14:00,3.8,north-northwest,6.0
2021/04/09,14:10,3.9,north-northwest,4.2
2021/04/09,14:20,3.9,north-northwest,6.0
2021/04/09,14:30,3.9,northwest,6.8
2021/04/09,14:40,4.0,north-northwest,6.4
2021/04/09,14:50,3.9,northwest,5.3
2021/04/09,15:00,3.9,northwest,7.7
2021/04/09,15:10,3.9,northwest,7.2
2021/04/09,15:20,3.9,northwest,7.3
2021/04/09,15:30,4.1,north-northwest,7.2
2021/04/09,15:40,3.9,north-northwest,10.9
2021/04/09,15:50,4.0,north-northwest,9.0
2021/04/09,16:00,4.0,north-northwest,8.3
2021/04/09,16:10,4.0,north-northwest,9.1
2021/04/09,16:20,3.9,north-northwest,8.0
2021/04/09,16:30,4.0,north-northwest,7.9
2021/04/09,16:40,3.8,north-northwest,9.6
2021/04/09,16:50,4.0,north-northwest,10.5
2021/04/09,17:00,4.1,northwest,9.3
2021/04/09,17:10,4.0,north-northwest,7.7
2021/04/09,17:20,3.9,north-northwest,6.4
2021/04/09,17:30,4.0,northwest,5.8
2021/04/09,17:40,4.0,northwest,5.2
2021/04/09,17:50,4.0,north-northwest,4.0
2021/04/09,18:00,4.1,north-northwest,5.3
2021/04/09,18:10,3.8,north-northwest,5.5
2021/04/09,18:20,3.9,northwest,6.3
2021/04/09,18:30,3.9,north-northwest,6.5
2021/04/09,18:40,3.7,north-northwest,5.7
2021/04/09,18:50,4.0,north-northwest,8.8
2021/04/09,19:00,3.8,northwest,8.4
2021/04/09,19:10,4.0,north-northwest,7.3
2021/04/09,19:20,4.0,northwest,7.6
2021/04/09,19:30,4.2,northwest,7.0
2021/04/09,19:40,3.9,northwest,7.7
2021/04/09,19:50,3.9,northwest,7.4
2021/04/09,20:00,3.9,northwest,7.3
2021/04/09,20:10,3.9,northwest,5.7
2021/04/09,20:20,4.1,northwest,7.0
2021/04/09,20:30,3.9,northwest,5.6
2021/04/09,20:40,3.9,northwest,6.5
2021/04/09,20:50,3.9,northwest,8.0
2021/04/09,21:00,3.8,northwest,7.2
2021/04/09,21:10,3.9,northwest,7.5
2021/04/09,21:20,3.7,northwest,6.7
2021/04/09,21:30,3.9,northwest,6.0
2021/04/09,21:40,3.9,northwest,5.2
2021/04/09,21:50,3.9,northwest,8.4
2021/04/09,22:00,3.9,north-northwest,8.5
2021/04/09,22:10,4.0,northwest,11.1
2021/04/09,22:20,3.9,northwest,11.0
2021/04/09,22:30,4.0,northwest,10.5
2021/04/09,22:40,4.0,northwest,12.0
2021/04/09,22:50,3.8,northwest,12.4
2021/04/09,23:00,3.8,northwest,12.4
2021/04/09,23:10,4.0,northwest,10.2
2021/04/09,23:20,3.9,northwest,10.6
2021/04/09,23:30,4.0,northwest,14.2
2021/04/09,23:40,4.0,northwest,8.8
2021/04/09,23:50,4.1,north-northeast,1.1
